{"data":{"norad_id":57682,"intl_designator":"2023-124V","name":"STARLINK-30297","alt_names":[],"object_type":"PAYLOAD","status":"ACTIVE","operator":null,"country":"US","launch_date":"2023-08-22","launch_site_code":"AFWTR","launch_vehicle":null,"mission":null,"orbit_class":"UNKNOWN","rcs_meters":null,"size_class":null,"mass_kg":null,"dimensions":null,"purposes":["comms"],"wikipedia_slug":null,"has_3d_model":false,"image_url":null,"decayed_at":null,"tle_current":{"epoch":"2026-09-20T21:28:47.687232Z","epoch_age_seconds":97208,"freshness":"FRESH","line1":"1 57682U 23124V   26263.89499638  .00026579  00000+0  79381-3 0  9994","line2":"2 57682  53.1616  19.5136 0001247 108.5503 251.5636 15.34447302173465","mean_motion":15.34447302,"eccentricity":0.0001247,"inclination_deg":53.1616,"raan_deg":19.5136,"arg_perigee_deg":108.5503,"mean_anomaly_deg":251.5636,"bstar":0.00079381,"rev_number":17346,"period_min":93.844865061387,"perigee_km":461.70961705968,"apogee_km":463.41568755296,"semimajor_km":6840.6996523063,"source":"CELESTRAK","updated_at":"2026-09-21T09:00:33.673336Z"}}}